When you browse on this site, cookies collect data to enhance your experience and personalize the content and advertising you see.
Visit our Privacy Policy to learn more. By continuing to use the site, you agree to this use of cookies and data.
  • In Austria
  • List of Countries
  • For 7 days
  • Water Temperature
  • Weather Map
  • News
  • Weather Widgets
  • user-avatar
    Login

    Hourly Weather Zacualtipan

    Today, 25 August, Sunday

    Time Temperature Precipitation Wind Pressure Humidity
    00:00 +18°C° 0 mm 1 mps 617 mmHg 91%
    01:00 +18°C° 0 mm 1 mps 617 mmHg 90%
    02:00 +18°C° 0 mm 1 mps 616 mmHg 89%
    03:00 +16°C° 0 mm 1 mps 616 mmHg 88%
    04:00 +16°C° 0 mm 1 mps 616 mmHg 88%
    05:00 +16°C° 0 mm 1 mps 616 mmHg 87%
    06:00 +17°C° 0 mm 0 mps 617 mmHg 81%
    07:00 +19°C° 0 mm 0 mps 618 mmHg 75%
    08:00 +21°C° 0 mm 0 mps 619 mmHg 68%
    09:00 +24°C° 0 mm 1 mps 619 mmHg 65%
    10:00 +25°C° 0 mm 1 mps 619 mmHg 61%
    11:00 +27°C° 0 mm 2 mps 620 mmHg 58%
    12:00 +26°C° 0.3 mm 2 mps 619 mmHg 63%
    13:00 +26°C° 0.3 mm 2 mps 618 mmHg 68%
    14:00 +25°C° 0.3 mm 2 mps 617 mmHg 73%
    15:00 +24°C° 0.6 mm 2 mps 617 mmHg 77%
    16:00 +24°C° 0.6 mm 2 mps 617 mmHg 82%
    17:00 +23°C° 0.6 mm 1 mps 616 mmHg 86%
    18:00 +22°C° 1 mm 1 mps 616 mmHg 89%
    19:00 +21°C° 1 mm 1 mps 617 mmHg 91%
    20:00 +20°C° 1 mm 1 mps 617 mmHg 94%
    21:00 +19°C° 0.2 mm 1 mps 616 mmHg 93%
    22:00 +17°C° 0.2 mm 0 mps 616 mmHg 93%
    23:00 +16°C° 0.2 mm 0 mps 616 mmHg 92%

    Tomorrow, 26 August, Monday

    Time Temperature Precipitation Wind Pressure Humidity
    00:00 +16°C° 0 mm 0 mps 616 mmHg 92%
    01:00 +16°C° 0 mm 0 mps 615 mmHg 92%
    02:00 +16°C° 0 mm 0 mps 615 mmHg 92%
    03:00 +16°C° 0 mm 1 mps 615 mmHg 91%
    04:00 +16°C° 0 mm 1 mps 615 mmHg 91%
    05:00 +16°C° 0 mm 1 mps 615 mmHg 91%
    06:00 +19°C° 0 mm 1 mps 616 mmHg 84%
    07:00 +19°C° 0 mm 0 mps 617 mmHg 78%
    08:00 +21°C° 0 mm 0 mps 618 mmHg 72%
    09:00 +24°C° 0.2 mm 1 mps 618 mmHg 70%
    10:00 +25°C° 0.2 mm 1 mps 618 mmHg 67%
    11:00 +26°C° 0.2 mm 2 mps 618 mmHg 65%
    12:00 +25°C° 1.1 mm 2 mps 617 mmHg 69%
    13:00 +25°C° 1.1 mm 2 mps 617 mmHg 72%
    14:00 +25°C° 1.1 mm 2 mps 616 mmHg 75%
    15:00 +24°C° 0.7 mm 2 mps 616 mmHg 79%
    16:00 +23°C° 0.7 mm 2 mps 615 mmHg 82%
    17:00 +23°C° 0.7 mm 1 mps 615 mmHg 85%
    18:00 +21°C° 0.2 mm 1 mps 615 mmHg 88%
    19:00 +20°C° 0.2 mm 1 mps 616 mmHg 92%
    20:00 +19°C° 0.2 mm 1 mps 616 mmHg 96%
    21:00 +19°C° 0.1 mm 1 mps 616 mmHg 95%
    22:00 +18°C° 0.1 mm 1 mps 616 mmHg 94%
    23:00 +18°C° 0.1 mm 1 mps 616 mmHg 93%

    Day after tomorrow, 27 August, Tuesday

    Time Temperature Precipitation Wind Pressure Humidity
    00:00 +18°C° 0.1 mm 1 mps 615 mmHg 93%
    01:00 +16°C° 0.1 mm 1 mps 615 mmHg 92%
    02:00 +15°C° 0.1 mm 0 mps 615 mmHg 91%
    03:00 +16°C° 0 mm 1 mps 615 mmHg 91%
    04:00 +16°C° 0 mm 1 mps 615 mmHg 91%
    05:00 +16°C° 0 mm 1 mps 615 mmHg 91%
    06:00 +18°C° 0 mm 1 mps 616 mmHg 86%
    07:00 +20°C° 0 mm 1 mps 617 mmHg 81%
    08:00 +22°C° 0 mm 1 mps 618 mmHg 76%
    09:00 +23°C° 0 mm 1 mps 618 mmHg 72%
    10:00 +24°C° 0 mm 1 mps 618 mmHg 68%
    11:00 +25°C° 0 mm 2 mps 618 mmHg 65%
    12:00 +24°C° 0.5 mm 2 mps 618 mmHg 69%
    13:00 +24°C° 0.5 mm 2 mps 617 mmHg 74%
    14:00 +23°C° 0.5 mm 2 mps 616 mmHg 79%
    15:00 +23°C° 0.6 mm 2 mps 616 mmHg 82%
    16:00 +22°C° 0.6 mm 1 mps 616 mmHg 85%
    17:00 +21°C° 0.6 mm 1 mps 616 mmHg 88%
    18:00 +20°C° 0.4 mm 1 mps 616 mmHg 90%
    19:00 +19°C° 0.4 mm 1 mps 616 mmHg 92%
    20:00 +18°C° 0.4 mm 1 mps 617 mmHg 93%
    21:00 +18°C° 0.1 mm 1 mps 617 mmHg 93%
    22:00 +18°C° 0.1 mm 1 mps 617 mmHg 93%
    23:00 +16°C° 0.1 mm 1 mps 617 mmHg 93%

    28 August, Wednesday

    Time Temperature Precipitation Wind Pressure Humidity
    00:00 +16°C° 0.3 mm 1 mps 617 mmHg 93%
    01:00 +16°C° 0.3 mm 1 mps 617 mmHg 93%
    02:00 +16°C° 0.3 mm 1 mps 617 mmHg 93%
    03:00 +15°C° 0.4 mm 1 mps 617 mmHg 93%
    04:00 +14°C° 0.4 mm 0 mps 617 mmHg 93%
    05:00 +14°C° 0.4 mm 0 mps 617 mmHg 94%
    06:00 +16°C° 0 mm 0 mps 618 mmHg 89%
    07:00 +19°C° 0 mm 1 mps 619 mmHg 85%
    08:00 +21°C° 0 mm 1 mps 620 mmHg 81%
    09:00 +22°C° 0 mm 1 mps 620 mmHg 77%
    10:00 +23°C° 0 mm 2 mps 620 mmHg 74%
    11:00 +24°C° 0 mm 2 mps 620 mmHg 70%
    12:00 +24°C° 0.2 mm 2 mps 619 mmHg 72%
    13:00 +23°C° 0.2 mm 2 mps 619 mmHg 73%
    14:00 +22°C° 0.2 mm 3 mps 618 mmHg 74%
    15:00 +23°C° 0.3 mm 2 mps 618 mmHg 78%
    16:00 +21°C° 0.3 mm 2 mps 618 mmHg 82%
    17:00 +20°C° 0.3 mm 2 mps 618 mmHg 85%
    18:00 +20°C° 0.1 mm 1 mps 618 mmHg 89%
    19:00 +18°C° 0.1 mm 1 mps 618 mmHg 92%
    20:00 +16°C° 0.1 mm 1 mps 618 mmHg 96%
    21:00 +16°C° 0 mm 1 mps 618 mmHg 95%
    22:00 +16°C° 0 mm 1 mps 618 mmHg 95%
    23:00 +15°C° 0 mm 1 mps 618 mmHg 95%

    29 August, Thursday

    Time Temperature Precipitation Wind Pressure Humidity
    00:00 +15°C° 0 mm 1 mps 618 mmHg 95%
    01:00 +15°C° 0 mm 1 mps 618 mmHg 94%
    02:00 +14°C° 0 mm 1 mps 617 mmHg 94%
    03:00 +14°C° 0 mm 1 mps 617 mmHg 93%
    04:00 +14°C° 0 mm 1 mps 617 mmHg 93%
    05:00 +14°C° 0 mm 1 mps 617 mmHg 93%
    06:00 +16°C° 0 mm 1 mps 618 mmHg 87%
    07:00 +19°C° 0 mm 1 mps 619 mmHg 80%
    08:00 +19°C° 0 mm 0 mps 620 mmHg 74%
    09:00 +22°C° 0 mm 1 mps 621 mmHg 68%
    10:00 +23°C° 0 mm 2 mps 621 mmHg 63%
    11:00 +24°C° 0 mm 2 mps 621 mmHg 57%
    12:00 +24°C° 0 mm 3 mps 620 mmHg 60%
    13:00 +24°C° 0 mm 3 mps 619 mmHg 64%
    14:00 +22°C° 0 mm 3 mps 619 mmHg 67%
    15:00 +21°C° 0 mm 3 mps 618 mmHg 70%
    16:00 +21°C° 0 mm 2 mps 618 mmHg 73%
    17:00 +21°C° 0 mm 1 mps 618 mmHg 76%
    18:00 +19°C° 0 mm 1 mps 618 mmHg 79%
    19:00 +18°C° 0 mm 1 mps 618 mmHg 83%
    20:00 +15°C° 0 mm 0 mps 618 mmHg 86%
    21:00 +16°C° 0 mm 1 mps 618 mmHg 87%
    22:00 +15°C° 0 mm 1 mps 618 mmHg 87%
    23:00 +15°C° 0 mm 1 mps 618 mmHg 87%

    30 August, Friday

    Time Temperature Precipitation Wind Pressure Humidity
    00:00 +15°C° 0 mm 1 mps 618 mmHg 88%
    01:00 +15°C° 0 mm 1 mps 617 mmHg 88%
    02:00 +14°C° 0 mm 1 mps 617 mmHg 89%
    03:00 +14°C° 0 mm 1 mps 617 mmHg 89%
    04:00 +14°C° 0 mm 1 mps 617 mmHg 89%
    05:00 +14°C° 0 mm 1 mps 617 mmHg 89%
    06:00 +16°C° 0 mm 1 mps 618 mmHg 80%
    07:00 +19°C° 0 mm 1 mps 619 mmHg 72%
    08:00 +20°C° 0 mm 0 mps 620 mmHg 63%
    09:00 +23°C° 0 mm 1 mps 620 mmHg 60%
    10:00 +24°C° 0 mm 1 mps 620 mmHg 56%
    11:00 +25°C° 0 mm 2 mps 620 mmHg 52%
    12:00 +24°C° 0 mm 2 mps 619 mmHg 57%
    13:00 +24°C° 0 mm 3 mps 618 mmHg 61%
    14:00 +24°C° 0 mm 3 mps 618 mmHg 66%
    15:00 +23°C° 0 mm 2 mps 617 mmHg 68%
    16:00 +21°C° 0 mm 2 mps 617 mmHg 71%
    17:00 +20°C° 0 mm 2 mps 617 mmHg 73%
    18:00 +19°C° 0 mm 1 mps 617 mmHg 79%
    19:00 +18°C° 0 mm 1 mps 617 mmHg 85%
    20:00 +15°C° 0 mm 1 mps 617 mmHg 90%
    21:00 +15°C° 0 mm 1 mps 617 mmHg 88%
    22:00 +14°C° 0 mm 1 mps 617 mmHg 86%
    23:00 +14°C° 0 mm 1 mps 617 mmHg 83%
    Show more